This is the latest recevied weather packets stored in our database for station/object KF6YUA. If no packets are shown the sender has not sent any weather packets the latest 10 day(s).
| Time | Temp. | Humidity | Pressure | Rain* | Wind** | Luminosity | Snow |
|---|---|---|---|---|---|---|---|
| 1777651112 | 10.56° C | 99% | 1017.3 hPa | 0 mm | - | 113 W/m² | - |
| 1777650808 | 10.56° C | 99% | 1017.4 hPa | 0 mm | - | 113 W/m² | - |
| 1777650504 | 10.56° C | 99% | 1017.2 hPa | 0 mm | - | 91 W/m² | - |
| 1777650202 | 10.56° C | 99% | 1017.3 hPa | 0 mm | - | 79 W/m² | - |
| 1777649899 | 10.56° C | 99% | 1017.4 hPa | 0 mm | - | 71 W/m² | - |
| 1777649597 | 10.56° C | 99% | 1017.2 hPa | 0 mm | - | 66 W/m² | - |
| 1777649292 | 10.56° C | 99% | 1017.2 hPa | 0 mm | - | 61 W/m² | - |
| 1777648990 | 10.56° C | 99% | 1017.2 hPa | 0 mm | - | 60 W/m² | - |
| 1777648687 | 10.56° C | 99% | 1017.1 hPa | 0 mm | - | 50 W/m² | - |
| 1777648383 | 10.56° C | 99% | 1017.1 hPa | 0 mm | - | 49 W/m² | - |
| 1777648079 | 10.56° C | 99% | 1017.1 hPa | 0 mm | - | 44 W/m² | - |
| 1777647776 | 10.56° C | 99% | 1017.1 hPa | 0 mm | - | 39 W/m² | - |
| 1777647472 | 10.56° C | 99% | 1016.9 hPa | 0 mm | - | 32 W/m² | - |
| 1777647170 | 10.56° C | 99% | 1016.8 hPa | 0 mm | - | 31 W/m² | - |
| 1777646866 | 10.56° C | 99% | 1017 hPa | 0 mm | - | 33 W/m² | - |
| 1777646562 | 10.56° C | 99% | 1016.9 hPa | 0 mm | - | 29 W/m² | - |
| 1777646258 | 10.56° C | 99% | 1016.9 hPa | 0 mm | - | 28 W/m² | - |
| 1777645956 | 10° C | 99% | 1017.2 hPa | 0 mm | - | 26 W/m² | - |
| 1777645653 | 10° C | 99% | 1016.6 hPa | 0 mm | - | 24 W/m² | - |
| 1777645348 | 10.56° C | 99% | 1016.7 hPa | 0 mm | - | 23 W/m² | - |
| 1777645044 | 10° C | 99% | 1016.7 hPa | 0 mm | - | 18 W/m² | - |
| 1777644742 | 10° C | 99% | 1016.7 hPa | 0 mm | - | 20 W/m² | - |
| 1777644439 | 10° C | 99% | 1016.5 hPa | 0 mm | - | 15 W/m² | - |
| 1777644135 | 10° C | 99% | 1016.3 hPa | 0 mm | - | 11 W/m² | - |
| 1777643831 | 10° C | 99% | 1016.5 hPa | 0 mm | - | 7 W/m² | - |
* Rain latest hour (hover to see other rain measurements)
** Current wind speed in m/s (hover to see current wind gust speed)